User: anonymous   Login
Location: Ertinghausen
(51.6624°N, 9.7874°E)
Time: 13:02:05
(UTC+00:00)
Language:

Cosmos 2221 Rocket - Orbit

View from above orbital plane
View from above orbital plane
View from above satellite
View from above satellite

Ground track
Ground track

The orbit data is extracted from the following two-line orbital elements,

1 22237U 92080B   24195.84138971  .00000609  00000-0  78354-4 0  9993
2 22237  82.5100 233.4497 0020192  37.9851 322.2781 14.79384108705128
Epoch (UTC): 13 July 2024 20:11:36
Eccentricity: 0.0020192
inclination: 82.5100°
perigee height: 617 km
apogee height: 645 km
right ascension of ascending node: 233.4497°
argument of perigee: 37.9851°
revolutions per day: 14.79384108
mean anomaly at epoch: 322.2781°
orbit number at epoch: 70512

The dashed part of the orbit path shows where the satellite is in the earth's shadow,  

DLR